Year,Month,Day,Hour,Minute,Value (Times are PST for temperature in C)
2016,03,31,00,00,14.20
2016,03,31,00,01,14.20
2016,03,31,00,02,14.20
2016,03,31,00,03,14.20
2016,03,31,00,04,14.20
2016,03,31,00,05,14.20
2016,03,31,00,06,14.20
2016,03,31,00,07,14.20
2016,03,31,00,08,14.10
2016,03,31,00,09,14.10
2016,03,31,00,10,14.10
2016,03,31,00,11,14.00
2016,03,31,00,12,13.90
2016,03,31,00,13,13.90
2016,03,31,00,14,13.80
2016,03,31,00,15,13.80
2016,03,31,00,16,13.80
2016,03,31,00,17,13.80
2016,03,31,00,18,13.70
2016,03,31,00,19,13.70
2016,03,31,00,20,13.70
2016,03,31,00,21,13.70
2016,03,31,00,22,13.70
2016,03,31,00,23,13.70
2016,03,31,00,24,13.70
2016,03,31,00,25,13.70
2016,03,31,00,26,13.70
2016,03,31,00,27,13.70
2016,03,31,00,28,13.70
2016,03,31,00,29,13.70
2016,03,31,00,30,13.70
2016,03,31,00,31,13.70
2016,03,31,00,32,13.70
2016,03,31,00,33,13.70
2016,03,31,00,34,13.70
2016,03,31,00,35,13.70
2016,03,31,00,36,13.60
2016,03,31,00,37,13.60
2016,03,31,00,38,13.70
2016,03,31,00,39,13.70
2016,03,31,00,40,13.70
2016,03,31,00,41,13.70
2016,03,31,00,42,13.70
2016,03,31,00,43,13.80
2016,03,31,00,44,13.80
2016,03,31,00,45,13.80
2016,03,31,00,46,13.80
2016,03,31,00,47,13.80
2016,03,31,00,48,13.80
2016,03,31,00,49,13.90
2016,03,31,00,50,13.90
2016,03,31,00,51,13.90
2016,03,31,00,52,13.90
2016,03,31,00,53,13.90
2016,03,31,00,54,13.90
2016,03,31,00,55,13.90
2016,03,31,00,56,13.90
2016,03,31,00,57,13.90
2016,03,31,00,58,13.90
2016,03,31,00,59,13.90
2016,03,31,01,00,13.90
2016,03,31,01,01,13.80
2016,03,31,01,02,13.80
2016,03,31,01,03,13.80
2016,03,31,01,04,13.80
2016,03,31,01,05,13.80
2016,03,31,01,06,13.80
2016,03,31,01,07,13.80
2016,03,31,01,08,13.80
2016,03,31,01,09,13.80
2016,03,31,01,10,13.80
2016,03,31,01,11,13.80
2016,03,31,01,12,13.70
2016,03,31,01,13,13.70
2016,03,31,01,14,13.70
2016,03,31,01,15,13.70
2016,03,31,01,16,13.70
2016,03,31,01,17,13.60
2016,03,31,01,18,13.60
2016,03,31,01,19,13.60
2016,03,31,01,20,13.50
2016,03,31,01,21,13.50
2016,03,31,01,22,13.50
2016,03,31,01,23,13.40
2016,03,31,01,24,13.40
2016,03,31,01,25,13.40
2016,03,31,01,26,13.50
2016,03,31,01,27,13.50
2016,03,31,01,28,13.50
2016,03,31,01,29,13.50
2016,03,31,01,30,13.50
2016,03,31,01,31,13.50
2016,03,31,01,32,13.50
2016,03,31,01,33,13.50
2016,03,31,01,34,13.50
2016,03,31,01,35,13.50
2016,03,31,01,36,13.50
2016,03,31,01,37,13.60
2016,03,31,01,38,13.60
2016,03,31,01,39,13.60
2016,03,31,01,40,13.60
2016,03,31,01,41,13.60
2016,03,31,01,42,13.60
2016,03,31,01,43,13.60
2016,03,31,01,44,13.60
2016,03,31,01,45,13.60
2016,03,31,01,46,13.60
2016,03,31,01,47,13.60
2016,03,31,01,48,13.60
2016,03,31,01,49,13.70
2016,03,31,01,50,13.70
2016,03,31,01,51,13.70
2016,03,31,01,52,13.70
2016,03,31,01,53,13.70
2016,03,31,01,54,13.70
2016,03,31,01,55,13.70
2016,03,31,01,56,13.70
2016,03,31,01,57,13.70
2016,03,31,01,58,13.80
2016,03,31,01,59,13.80
2016,03,31,02,00,13.70
2016,03,31,02,01,13.70
2016,03,31,02,02,13.70
2016,03,31,02,03,13.60
2016,03,31,02,04,13.60
2016,03,31,02,05,13.50
2016,03,31,02,06,13.50
2016,03,31,02,07,13.40
2016,03,31,02,08,13.40
2016,03,31,02,09,13.40
2016,03,31,02,10,13.40
2016,03,31,02,11,13.30
2016,03,31,02,12,13.30
2016,03,31,02,13,13.30
2016,03,31,02,14,13.30
2016,03,31,02,15,13.30
2016,03,31,02,16,13.30
2016,03,31,02,17,13.30
2016,03,31,02,18,13.30
2016,03,31,02,19,13.30
2016,03,31,02,20,13.30
2016,03,31,02,21,13.30
2016,03,31,02,22,13.30
2016,03,31,02,23,13.40
2016,03,31,02,24,13.40
2016,03,31,02,25,13.40
2016,03,31,02,26,13.40
2016,03,31,02,27,13.40
2016,03,31,02,28,13.40
2016,03,31,02,29,13.40
2016,03,31,02,30,13.40
2016,03,31,02,31,13.40
2016,03,31,02,32,13.40
2016,03,31,02,33,13.40
2016,03,31,02,34,13.30
2016,03,31,02,35,13.30
2016,03,31,02,36,13.30
2016,03,31,02,37,13.30
2016,03,31,02,38,13.30
2016,03,31,02,39,13.20
2016,03,31,02,40,13.20
2016,03,31,02,41,13.20
2016,03,31,02,42,13.20
2016,03,31,02,43,13.20
2016,03,31,02,44,13.20
2016,03,31,02,45,13.20
2016,03,31,02,46,13.20
2016,03,31,02,47,13.20
2016,03,31,02,48,13.10
2016,03,31,02,49,13.10
2016,03,31,02,50,13.10
2016,03,31,02,51,13.10
2016,03,31,02,52,13.10
2016,03,31,02,53,13.10
2016,03,31,02,54,13.10
2016,03,31,02,55,13.10
2016,03,31,02,56,13.00
2016,03,31,02,57,13.00
2016,03,31,02,58,13.00
2016,03,31,02,59,13.00
2016,03,31,03,00,13.00
2016,03,31,03,01,13.00
2016,03,31,03,02,13.00
2016,03,31,03,03,13.00
2016,03,31,03,04,13.00
2016,03,31,03,05,13.00
2016,03,31,03,06,13.10
2016,03,31,03,07,13.10
2016,03,31,03,08,13.10
2016,03,31,03,09,13.10
2016,03,31,03,10,13.10
2016,03,31,03,11,13.10
2016,03,31,03,12,13.10
2016,03,31,03,13,13.00
2016,03,31,03,14,13.00
2016,03,31,03,15,13.00
2016,03,31,03,16,13.00
2016,03,31,03,17,13.00
2016,03,31,03,18,13.00
2016,03,31,03,19,13.00
2016,03,31,03,20,13.00
2016,03,31,03,21,13.00
2016,03,31,03,22,13.00
2016,03,31,03,23,13.00
2016,03,31,03,24,13.10
2016,03,31,03,25,13.10
2016,03,31,03,26,13.10
2016,03,31,03,27,13.10
2016,03,31,03,28,13.10
2016,03,31,03,29,13.10
2016,03,31,03,30,13.10
2016,03,31,03,31,13.10
2016,03,31,03,32,13.10
2016,03,31,03,33,13.00
2016,03,31,03,34,13.00
2016,03,31,03,35,13.00
2016,03,31,03,36,13.00
2016,03,31,03,37,12.90
2016,03,31,03,38,12.90
2016,03,31,03,39,12.90
2016,03,31,03,40,12.90
2016,03,31,03,41,12.90
2016,03,31,03,42,12.90
2016,03,31,03,43,12.90
2016,03,31,03,44,12.90
2016,03,31,03,45,12.90
2016,03,31,03,46,12.90
2016,03,31,03,47,12.90
2016,03,31,03,48,12.80
2016,03,31,03,49,12.80
2016,03,31,03,50,12.80
2016,03,31,03,51,12.80
2016,03,31,03,52,12.70
2016,03,31,03,53,12.70
2016,03,31,03,54,12.70
2016,03,31,03,55,12.60
2016,03,31,03,56,12.60
2016,03,31,03,57,12.60
2016,03,31,03,58,12.50
2016,03,31,03,59,12.50
2016,03,31,04,00,12.50
2016,03,31,04,01,12.40
2016,03,31,04,02,12.40
2016,03,31,04,03,12.40
2016,03,31,04,04,12.30
2016,03,31,04,05,12.30
2016,03,31,04,06,12.30
2016,03,31,04,07,12.20
2016,03,31,04,08,12.20
2016,03,31,04,09,12.10
2016,03,31,04,10,12.10
2016,03,31,04,11,12.10
2016,03,31,04,12,12.00
2016,03,31,04,13,11.90
2016,03,31,04,14,11.90
2016,03,31,04,15,11.80
2016,03,31,04,16,11.80
2016,03,31,04,17,11.70
2016,03,31,04,18,11.70
2016,03,31,04,19,11.60
2016,03,31,04,20,11.60
2016,03,31,04,21,11.60
2016,03,31,04,22,11.60
2016,03,31,04,23,11.60
2016,03,31,04,24,11.60
2016,03,31,04,25,11.60
2016,03,31,04,26,11.60
2016,03,31,04,27,11.60
2016,03,31,04,28,11.60
2016,03,31,04,29,11.60
2016,03,31,04,30,11.60
2016,03,31,04,31,11.60
2016,03,31,04,32,11.50
2016,03,31,04,33,11.50
2016,03,31,04,34,11.50
2016,03,31,04,35,11.50
2016,03,31,04,36,11.40
2016,03,31,04,37,11.40
2016,03,31,04,38,11.40
2016,03,31,04,39,11.40
2016,03,31,04,40,11.40
2016,03,31,04,41,11.40
2016,03,31,04,42,11.40
2016,03,31,04,43,11.40
2016,03,31,04,44,11.30
2016,03,31,04,45,11.30
2016,03,31,04,46,11.30
2016,03,31,04,47,11.30
2016,03,31,04,48,11.30
2016,03,31,04,49,11.40
2016,03,31,04,50,11.40
2016,03,31,04,51,11.40
2016,03,31,04,52,11.40
2016,03,31,04,53,11.50
2016,03,31,04,54,11.50
2016,03,31,04,55,11.60
2016,03,31,04,56,11.60
2016,03,31,04,57,11.60
2016,03,31,04,58,11.60
2016,03,31,04,59,11.50
2016,03,31,05,00,11.50
2016,03,31,05,01,11.50
2016,03,31,05,02,11.40
2016,03,31,05,03,11.40
2016,03,31,05,04,11.50
2016,03,31,05,05,11.50
2016,03,31,05,06,11.50
2016,03,31,05,07,11.60
2016,03,31,05,08,11.60
2016,03,31,05,09,11.60
2016,03,31,05,10,11.60
2016,03,31,05,11,11.60
2016,03,31,05,12,11.60
2016,03,31,05,13,11.60
2016,03,31,05,14,11.60
2016,03,31,05,15,11.70
2016,03,31,05,16,11.70
2016,03,31,05,17,11.70
2016,03,31,05,18,11.70
2016,03,31,05,19,11.70
2016,03,31,05,20,11.70
2016,03,31,05,21,11.70
2016,03,31,05,22,11.70
2016,03,31,05,23,11.70
2016,03,31,05,24,11.70
2016,03,31,05,25,11.70
2016,03,31,05,26,11.70
2016,03,31,05,27,11.70
2016,03,31,05,28,11.70
2016,03,31,05,29,11.80
2016,03,31,05,30,11.80
2016,03,31,05,31,11.80
2016,03,31,05,32,11.80
2016,03,31,05,33,11.80
2016,03,31,05,34,11.80
2016,03,31,05,35,11.80
2016,03,31,05,36,11.90
2016,03,31,05,37,11.90
2016,03,31,05,38,11.90
2016,03,31,05,39,11.90
2016,03,31,05,40,11.90
2016,03,31,05,41,11.90
2016,03,31,05,42,11.80
2016,03,31,05,43,11.80
2016,03,31,05,44,11.80
2016,03,31,05,45,11.70
2016,03,31,05,46,11.70
2016,03,31,05,47,11.70
2016,03,31,05,48,11.70
2016,03,31,05,49,11.70
2016,03,31,05,50,11.80
2016,03,31,05,51,11.80
2016,03,31,05,52,11.80
2016,03,31,05,53,11.90
2016,03,31,05,54,11.90
2016,03,31,05,55,12.00
2016,03,31,05,56,12.10
2016,03,31,05,57,12.10
2016,03,31,05,58,12.10
2016,03,31,05,59,12.20
2016,03,31,06,00,12.20
2016,03,31,06,01,12.20
2016,03,31,06,02,12.20
2016,03,31,06,03,12.30
2016,03,31,06,04,12.30
2016,03,31,06,05,12.30
2016,03,31,06,06,12.30
2016,03,31,06,07,12.30
2016,03,31,06,08,12.30
2016,03,31,06,09,12.30
2016,03,31,06,10,12.30
2016,03,31,06,11,12.30
2016,03,31,06,12,12.30
2016,03,31,06,13,12.30
2016,03,31,06,14,12.30
2016,03,31,06,15,12.30
2016,03,31,06,16,12.30
2016,03,31,06,17,12.30
2016,03,31,06,18,12.30
2016,03,31,06,19,12.30
2016,03,31,06,20,12.30
2016,03,31,06,21,12.30
2016,03,31,06,22,12.30
2016,03,31,06,23,12.30
2016,03,31,06,24,12.30
2016,03,31,06,25,12.30
2016,03,31,06,26,12.30
2016,03,31,06,27,12.30
2016,03,31,06,28,12.20
2016,03,31,06,29,12.20
2016,03,31,06,30,12.20
2016,03,31,06,31,12.20
2016,03,31,06,32,12.20
2016,03,31,06,33,12.20
2016,03,31,06,34,12.20
2016,03,31,06,35,12.20
2016,03,31,06,36,12.20
2016,03,31,06,37,12.20
2016,03,31,06,38,12.30
2016,03,31,06,39,12.30
2016,03,31,06,40,12.30
2016,03,31,06,41,12.40
2016,03,31,06,42,12.40
2016,03,31,06,43,12.40
2016,03,31,06,44,12.40
2016,03,31,06,45,12.40
2016,03,31,06,46,12.40
2016,03,31,06,47,12.30
2016,03,31,06,48,12.30
2016,03,31,06,49,12.30
2016,03,31,06,50,12.30
2016,03,31,06,51,12.30
2016,03,31,06,52,12.30
2016,03,31,06,53,12.30
2016,03,31,06,54,12.30
2016,03,31,06,55,12.30
2016,03,31,06,56,12.30
2016,03,31,06,57,12.40
2016,03,31,06,58,12.40
2016,03,31,06,59,12.40
2016,03,31,07,00,12.40
2016,03,31,07,01,12.40
2016,03,31,07,02,12.50
2016,03,31,07,03,12.50
2016,03,31,07,04,12.50
2016,03,31,07,05,12.60
2016,03,31,07,06,12.60
2016,03,31,07,07,12.60
2016,03,31,07,08,12.60
2016,03,31,07,09,12.60
2016,03,31,07,10,12.60
2016,03,31,07,11,12.60
2016,03,31,07,12,12.60
2016,03,31,07,13,12.60
2016,03,31,07,14,12.60
2016,03,31,07,15,12.70
2016,03,31,07,16,12.70
2016,03,31,07,17,12.70
2016,03,31,07,18,12.70
2016,03,31,07,19,12.70
2016,03,31,07,20,12.70
2016,03,31,07,21,12.70
2016,03,31,07,22,12.70
2016,03,31,07,23,12.70
2016,03,31,07,24,12.70
2016,03,31,07,25,12.70
2016,03,31,07,26,12.60
2016,03,31,07,27,12.50
2016,03,31,07,28,12.50
2016,03,31,07,29,12.40
2016,03,31,07,30,12.30
2016,03,31,07,31,12.30
2016,03,31,07,32,12.20
2016,03,31,07,33,12.20
2016,03,31,07,34,12.20
2016,03,31,07,35,12.20
2016,03,31,07,36,12.20
2016,03,31,07,37,12.10
2016,03,31,07,38,12.10
2016,03,31,07,39,12.10
2016,03,31,07,40,12.10
2016,03,31,07,41,12.10
2016,03,31,07,42,12.00
2016,03,31,07,43,12.00
2016,03,31,07,44,11.90
2016,03,31,07,45,11.90
2016,03,31,07,46,11.90
2016,03,31,07,47,11.80
2016,03,31,07,48,11.80
2016,03,31,07,49,11.70
2016,03,31,07,50,11.70
2016,03,31,07,51,11.60
2016,03,31,07,52,11.60
2016,03,31,07,53,11.50
2016,03,31,07,54,11.50
2016,03,31,07,55,11.50
2016,03,31,07,56,11.40
2016,03,31,07,57,11.40
2016,03,31,07,58,11.40
2016,03,31,07,59,11.40
2016,03,31,08,00,11.40
2016,03,31,08,01,11.40
2016,03,31,08,02,11.40
2016,03,31,08,03,11.40
2016,03,31,08,04,11.50
2016,03,31,08,05,11.50
2016,03,31,08,06,11.50
2016,03,31,08,07,11.60
2016,03,31,08,08,11.60
2016,03,31,08,09,11.60
2016,03,31,08,10,11.60
2016,03,31,08,11,11.60
2016,03,31,08,12,11.60
2016,03,31,08,13,11.50
2016,03,31,08,14,11.50
2016,03,31,08,15,11.50
2016,03,31,08,16,11.50
2016,03,31,08,17,11.50
2016,03,31,08,18,11.50
2016,03,31,08,19,11.50
2016,03,31,08,20,11.50
2016,03,31,08,21,11.60
2016,03,31,08,22,11.60
2016,03,31,08,23,11.60
2016,03,31,08,24,11.70
2016,03,31,08,25,11.70
2016,03,31,08,26,11.70
2016,03,31,08,27,11.80
2016,03,31,08,28,11.80
2016,03,31,08,29,11.90
2016,03,31,08,30,12.00
2016,03,31,08,31,12.00
2016,03,31,08,32,12.10
2016,03,31,08,33,12.10
2016,03,31,08,34,12.20
2016,03,31,08,35,12.30
2016,03,31,08,36,12.30
2016,03,31,08,37,12.30
2016,03,31,08,38,12.40
2016,03,31,08,39,12.40
2016,03,31,08,40,12.40
2016,03,31,08,41,12.40
2016,03,31,08,42,12.40
2016,03,31,08,43,12.50
2016,03,31,08,44,12.50
2016,03,31,08,45,12.60
2016,03,31,08,46,12.60
2016,03,31,08,47,12.70
2016,03,31,08,48,12.70
2016,03,31,08,49,12.80
2016,03,31,08,50,12.80
2016,03,31,08,51,12.80
2016,03,31,08,52,12.80
2016,03,31,08,53,12.80
2016,03,31,08,54,12.80
2016,03,31,08,55,12.80
2016,03,31,08,56,12.80
2016,03,31,08,57,12.80
2016,03,31,08,58,12.80
2016,03,31,08,59,12.80
2016,03,31,09,00,12.80
2016,03,31,09,01,12.80
2016,03,31,09,02,12.80
2016,03,31,09,03,12.80
2016,03,31,09,04,12.80
2016,03,31,09,05,12.80
2016,03,31,09,06,12.80
2016,03,31,09,07,12.80
2016,03,31,09,08,12.90
2016,03,31,09,09,12.90
2016,03,31,09,10,12.90
2016,03,31,09,11,13.00
2016,03,31,09,12,13.00
2016,03,31,09,13,13.10
2016,03,31,09,14,13.10
2016,03,31,09,15,13.10
2016,03,31,09,16,13.20
2016,03,31,09,17,13.20
2016,03,31,09,18,13.30
2016,03,31,09,19,13.30
2016,03,31,09,20,13.30
2016,03,31,09,21,13.40
2016,03,31,09,22,13.40
2016,03,31,09,23,13.50
2016,03,31,09,24,13.50
2016,03,31,09,25,13.50
2016,03,31,09,26,13.40
2016,03,31,09,27,13.40
2016,03,31,09,28,13.40
2016,03,31,09,29,13.40
2016,03,31,09,30,13.50
2016,03,31,09,31,13.50
2016,03,31,09,32,13.60
2016,03,31,09,33,13.60
2016,03,31,09,34,13.70
2016,03,31,09,35,13.80
2016,03,31,09,36,13.80
2016,03,31,09,37,13.80
2016,03,31,09,38,13.90
2016,03,31,09,39,13.90
2016,03,31,09,40,14.00
2016,03,31,09,41,14.10
2016,03,31,09,42,14.10
2016,03,31,09,43,14.20
2016,03,31,09,44,14.20
2016,03,31,09,45,14.30
2016,03,31,09,46,14.30
2016,03,31,09,47,14.40
2016,03,31,09,48,14.40
2016,03,31,09,49,14.40
2016,03,31,09,50,14.30
2016,03,31,09,51,14.30
2016,03,31,09,52,14.30
2016,03,31,09,53,14.30
2016,03,31,09,54,14.20
2016,03,31,09,55,14.20
2016,03,31,09,56,14.10
2016,03,31,09,57,14.10
2016,03,31,09,58,14.10
2016,03,31,09,59,14.20
2016,03,31,10,00,14.20
2016,03,31,10,01,14.30
2016,03,31,10,02,14.40
2016,03,31,10,03,14.50
2016,03,31,10,04,14.60
2016,03,31,10,05,14.60
2016,03,31,10,06,14.60
2016,03,31,10,07,14.50
2016,03,31,10,08,14.50
2016,03,31,10,09,14.50
2016,03,31,10,10,14.50
2016,03,31,10,11,14.60
2016,03,31,10,12,14.60
2016,03,31,10,13,14.60
2016,03,31,10,14,14.60
2016,03,31,10,15,14.60
2016,03,31,10,16,14.70
2016,03,31,10,17,14.70
2016,03,31,10,18,14.70
2016,03,31,10,19,14.70
2016,03,31,10,20,14.80
2016,03,31,10,21,14.70
2016,03,31,10,22,14.70
2016,03,31,10,23,14.80
2016,03,31,10,24,14.80
2016,03,31,10,25,14.80
2016,03,31,10,26,14.80
2016,03,31,10,27,14.80
2016,03,31,10,28,14.70
2016,03,31,10,29,14.70
2016,03,31,10,30,14.70
2016,03,31,10,31,14.70
2016,03,31,10,32,14.80
2016,03,31,10,33,14.80
2016,03,31,10,34,14.80
2016,03,31,10,35,14.80
2016,03,31,10,36,14.80
2016,03,31,10,37,14.80
2016,03,31,10,38,14.80
2016,03,31,10,39,14.80
2016,03,31,10,40,14.80
2016,03,31,10,41,14.80
2016,03,31,10,42,14.70
2016,03,31,10,43,14.70
2016,03,31,10,44,14.70
2016,03,31,10,45,14.70
2016,03,31,10,46,14.70
2016,03,31,10,47,14.80
2016,03,31,10,48,14.80
2016,03,31,10,49,14.90
2016,03,31,10,50,15.00
2016,03,31,10,51,15.00
2016,03,31,10,52,15.00
2016,03,31,10,53,15.00
2016,03,31,10,54,15.00
2016,03,31,10,55,15.00
2016,03,31,10,56,15.00
2016,03,31,10,57,15.00
2016,03,31,10,58,15.00
2016,03,31,10,59,15.00
2016,03,31,11,00,15.10
2016,03,31,11,01,15.20
2016,03,31,11,02,15.30
2016,03,31,11,03,15.30
2016,03,31,11,04,15.20
2016,03,31,11,05,15.20
2016,03,31,11,06,15.20
2016,03,31,11,07,15.30
2016,03,31,11,08,15.30
2016,03,31,11,09,15.40
2016,03,31,11,10,15.40
2016,03,31,11,11,15.40
2016,03,31,11,12,15.50
2016,03,31,11,13,15.50
2016,03,31,11,14,15.50
2016,03,31,11,15,15.60
2016,03,31,11,16,15.60
2016,03,31,11,17,15.70
2016,03,31,11,18,15.70
2016,03,31,11,19,15.70
2016,03,31,11,20,15.70
2016,03,31,11,21,15.70
2016,03,31,11,22,15.70
2016,03,31,11,23,15.80
2016,03,31,11,24,15.80
2016,03,31,11,25,15.80
2016,03,31,11,26,15.80
2016,03,31,11,27,15.80
2016,03,31,11,28,15.90
2016,03,31,11,29,15.90
2016,03,31,11,30,16.00
2016,03,31,11,31,16.10
2016,03,31,11,32,16.10
2016,03,31,11,33,16.10
2016,03,31,11,34,16.10
2016,03,31,11,35,16.00
2016,03,31,11,36,16.00
2016,03,31,11,37,15.90
2016,03,31,11,38,15.90
2016,03,31,11,39,16.00
2016,03,31,11,40,16.10
2016,03,31,11,41,16.20
2016,03,31,11,42,16.20
2016,03,31,11,43,16.20
2016,03,31,11,44,16.20
2016,03,31,11,45,16.20
2016,03,31,11,46,16.20
2016,03,31,11,47,16.30
2016,03,31,11,48,16.30
2016,03,31,11,49,16.30
2016,03,31,11,50,16.30
2016,03,31,11,51,16.30
2016,03,31,11,52,16.40
2016,03,31,11,53,16.40
2016,03,31,11,54,16.50
2016,03,31,11,55,16.60
2016,03,31,11,56,16.60
2016,03,31,11,57,16.70
2016,03,31,11,58,16.60
2016,03,31,11,59,16.60
2016,03,31,12,00,16.50
2016,03,31,12,01,16.40
2016,03,31,12,02,16.30
2016,03,31,12,03,16.30
2016,03,31,12,04,16.10
2016,03,31,12,05,16.10
2016,03,31,12,06,16.00
2016,03,31,12,07,16.00
2016,03,31,12,08,16.00
2016,03,31,12,09,16.10
2016,03,31,12,10,16.20
2016,03,31,12,11,16.30
2016,03,31,12,12,16.40
2016,03,31,12,13,16.50
2016,03,31,12,14,16.60
2016,03,31,12,15,16.60
2016,03,31,12,16,16.60
2016,03,31,12,17,16.50
2016,03,31,12,18,16.50
2016,03,31,12,19,16.50
2016,03,31,12,20,16.50
2016,03,31,12,21,16.50
2016,03,31,12,22,16.60
2016,03,31,12,23,16.60
2016,03,31,12,24,16.60
2016,03,31,12,25,16.60
2016,03,31,12,26,16.70
2016,03,31,12,27,16.80
2016,03,31,12,28,16.80
2016,03,31,12,29,16.80
2016,03,31,12,30,16.80
2016,03,31,12,31,16.80
2016,03,31,12,32,16.80
2016,03,31,12,33,16.90
2016,03,31,12,34,16.90
2016,03,31,12,35,16.90
2016,03,31,12,36,17.00
2016,03,31,12,37,17.10
2016,03,31,12,38,17.10
2016,03,31,12,39,17.10
2016,03,31,12,40,17.00
2016,03,31,12,41,16.90
2016,03,31,12,42,16.80
2016,03,31,12,43,16.70
2016,03,31,12,44,16.60
2016,03,31,12,45,16.60
2016,03,31,12,46,16.50
2016,03,31,12,47,16.50
2016,03,31,12,48,16.50
2016,03,31,12,49,16.50
2016,03,31,12,50,16.60
2016,03,31,12,51,16.60
2016,03,31,12,52,16.60
2016,03,31,12,53,16.60
2016,03,31,12,54,16.60
2016,03,31,12,55,16.60
2016,03,31,12,56,16.60
2016,03,31,12,57,16.70
2016,03,31,12,58,16.80
2016,03,31,12,59,16.70
2016,03,31,13,00,16.70
2016,03,31,13,01,16.70
2016,03,31,13,02,16.70
2016,03,31,13,03,16.60
2016,03,31,13,04,16.60
2016,03,31,13,05,16.60
2016,03,31,13,06,16.60
2016,03,31,13,07,16.60
2016,03,31,13,08,16.60
2016,03,31,13,09,16.60
2016,03,31,13,10,16.60
2016,03,31,13,11,16.70
2016,03,31,13,12,16.70
2016,03,31,13,13,16.80
2016,03,31,13,14,17.00
2016,03,31,13,15,17.10
2016,03,31,13,16,17.10
2016,03,31,13,17,17.10
2016,03,31,13,18,17.10
2016,03,31,13,19,17.10
2016,03,31,13,20,17.00
2016,03,31,13,21,16.90
2016,03,31,13,22,16.90
2016,03,31,13,23,16.80
2016,03,31,13,24,16.90
2016,03,31,13,25,17.00
2016,03,31,13,26,17.10
2016,03,31,13,27,17.20
2016,03,31,13,28,17.20
2016,03,31,13,29,17.20
2016,03,31,13,30,17.20
2016,03,31,13,31,17.20
2016,03,31,13,32,17.10
2016,03,31,13,33,17.10
2016,03,31,13,34,17.10
2016,03,31,13,35,17.00
2016,03,31,13,36,17.00
2016,03,31,13,37,16.90
2016,03,31,13,38,16.90
2016,03,31,13,39,16.80
2016,03,31,13,40,16.90
2016,03,31,13,41,16.80
2016,03,31,13,42,16.70
2016,03,31,13,43,16.60
2016,03,31,13,44,16.60
2016,03,31,13,45,16.60
2016,03,31,13,46,16.60
2016,03,31,13,47,16.60
2016,03,31,13,48,16.60
2016,03,31,13,49,16.70
2016,03,31,13,50,16.60
2016,03,31,13,51,16.60
2016,03,31,13,52,16.50
2016,03,31,13,53,16.50
2016,03,31,13,54,16.50
2016,03,31,13,55,16.60
2016,03,31,13,56,16.60
2016,03,31,13,57,16.70
2016,03,31,13,58,16.80
2016,03,31,13,59,16.80
2016,03,31,14,00,16.80
2016,03,31,14,01,16.80
2016,03,31,14,02,16.90
2016,03,31,14,03,16.90
2016,03,31,14,04,16.90
2016,03,31,14,05,16.90
2016,03,31,14,06,17.00
2016,03,31,14,07,17.00
2016,03,31,14,08,17.00
2016,03,31,14,09,17.00
2016,03,31,14,10,17.10
2016,03,31,14,11,17.10
2016,03,31,14,12,17.20
2016,03,31,14,13,17.30
2016,03,31,14,14,17.40
2016,03,31,14,15,17.50
2016,03,31,14,16,17.50
2016,03,31,14,17,17.60
2016,03,31,14,18,17.60
2016,03,31,14,19,17.60
2016,03,31,14,20,17.50
2016,03,31,14,21,17.50
2016,03,31,14,22,17.50
2016,03,31,14,23,17.60
2016,03,31,14,24,17.70
2016,03,31,14,25,17.80
2016,03,31,14,26,17.80
2016,03,31,14,27,17.80
2016,03,31,14,28,17.80
2016,03,31,14,29,17.80
2016,03,31,14,30,17.80
2016,03,31,14,31,17.80
2016,03,31,14,32,17.90
2016,03,31,14,33,17.90
2016,03,31,14,34,17.90
2016,03,31,14,35,17.90
2016,03,31,14,36,17.90
2016,03,31,14,37,18.00
2016,03,31,14,38,18.00
2016,03,31,14,39,18.10
2016,03,31,14,40,18.10
2016,03,31,14,41,18.10
2016,03,31,14,42,18.00
2016,03,31,14,43,18.00
2016,03,31,14,44,18.10
2016,03,31,14,45,18.10
2016,03,31,14,46,18.00
2016,03,31,14,47,18.00
2016,03,31,14,48,18.00
2016,03,31,14,49,18.10
2016,03,31,14,50,18.10
2016,03,31,14,51,18.20
2016,03,31,14,52,18.20
2016,03,31,14,53,18.30
2016,03,31,14,54,18.30
2016,03,31,14,55,18.40
2016,03,31,14,56,18.30
2016,03,31,14,57,18.30
2016,03,31,14,58,18.40
2016,03,31,14,59,18.40
2016,03,31,15,00,18.40
2016,03,31,15,01,18.40
2016,03,31,15,02,18.40
2016,03,31,15,03,18.40
2016,03,31,15,04,18.30
2016,03,31,15,05,18.20
2016,03,31,15,06,18.20
2016,03,31,15,07,18.10
2016,03,31,15,08,18.00
2016,03,31,15,09,18.00
2016,03,31,15,10,17.90
2016,03,31,15,11,17.90
2016,03,31,15,12,18.00
2016,03,31,15,13,18.00
2016,03,31,15,14,18.00
2016,03,31,15,15,18.10
2016,03,31,15,16,18.10
2016,03,31,15,17,18.20
2016,03,31,15,18,18.30
2016,03,31,15,19,18.40
2016,03,31,15,20,18.40
2016,03,31,15,21,18.40
2016,03,31,15,22,18.40
2016,03,31,15,23,18.40
2016,03,31,15,24,18.40
2016,03,31,15,25,18.40
2016,03,31,15,26,18.40
2016,03,31,15,27,18.40
2016,03,31,15,28,18.40
2016,03,31,15,29,18.40
2016,03,31,15,30,18.40
2016,03,31,15,31,18.50
2016,03,31,15,32,18.60
2016,03,31,15,33,18.60
2016,03,31,15,34,18.60
2016,03,31,15,35,18.70
2016,03,31,15,36,18.70
2016,03,31,15,37,18.80
2016,03,31,15,38,18.90
2016,03,31,15,39,18.90
2016,03,31,15,40,18.90
2016,03,31,15,41,18.90
2016,03,31,15,42,18.90
2016,03,31,15,43,18.80
2016,03,31,15,44,18.80
2016,03,31,15,45,18.90
2016,03,31,15,46,18.90
2016,03,31,15,47,18.90
2016,03,31,15,48,18.90
2016,03,31,15,49,19.00
2016,03,31,15,50,19.00
2016,03,31,15,51,19.10
2016,03,31,15,52,19.10
2016,03,31,15,53,19.10
2016,03,31,15,54,19.20
2016,03,31,15,55,19.20
2016,03,31,15,56,19.20
2016,03,31,15,57,19.20
2016,03,31,15,58,19.20
2016,03,31,15,59,19.20
2016,03,31,16,00,19.10
2016,03,31,16,01,19.10
2016,03,31,16,02,19.00
2016,03,31,16,03,18.90
2016,03,31,16,04,18.90
2016,03,31,16,05,18.80
2016,03,31,16,06,18.70
2016,03,31,16,07,18.70
2016,03,31,16,08,18.80
2016,03,31,16,09,18.80
2016,03,31,16,10,18.90
2016,03,31,16,11,18.90
2016,03,31,16,12,18.90
2016,03,31,16,13,19.00
2016,03,31,16,14,19.00
2016,03,31,16,15,19.10
2016,03,31,16,16,19.10
2016,03,31,16,17,19.20
2016,03,31,16,18,19.30
2016,03,31,16,19,19.30
2016,03,31,16,20,19.40
2016,03,31,16,21,19.40
2016,03,31,16,22,19.50
2016,03,31,16,23,19.50
2016,03,31,16,24,19.50
2016,03,31,16,25,19.50
2016,03,31,16,26,19.40
2016,03,31,16,27,19.40
2016,03,31,16,28,19.40
2016,03,31,16,29,19.50
2016,03,31,16,30,19.50
2016,03,31,16,31,19.50
2016,03,31,16,32,19.40
2016,03,31,16,33,19.40
2016,03,31,16,34,19.30
2016,03,31,16,35,19.30
2016,03,31,16,36,19.20
2016,03,31,16,37,19.20
2016,03,31,16,38,19.20
2016,03,31,16,39,19.20
2016,03,31,16,40,19.20
2016,03,31,16,41,19.30
2016,03,31,16,42,19.30
2016,03,31,16,43,19.40
2016,03,31,16,44,19.40
2016,03,31,16,45,19.40
2016,03,31,16,46,19.30
2016,03,31,16,47,19.30
2016,03,31,16,48,19.30
2016,03,31,16,49,19.30
2016,03,31,16,50,19.30
2016,03,31,16,51,19.20
2016,03,31,16,52,19.20
2016,03,31,16,53,19.20
2016,03,31,16,54,19.20
2016,03,31,16,55,19.20
2016,03,31,16,56,19.20
2016,03,31,16,57,19.30
2016,03,31,16,58,19.30
2016,03,31,16,59,19.30
2016,03,31,17,00,19.30
2016,03,31,17,01,19.30
2016,03,31,17,02,19.30
2016,03,31,17,03,19.30
2016,03,31,17,04,19.30
2016,03,31,17,05,19.40
2016,03,31,17,06,19.40
2016,03,31,17,07,19.40
2016,03,31,17,08,19.40
2016,03,31,17,09,19.30
2016,03,31,17,10,19.30
2016,03,31,17,11,19.20
2016,03,31,17,12,19.20
2016,03,31,17,13,19.20
2016,03,31,17,14,19.20
2016,03,31,17,15,19.20
2016,03,31,17,16,19.20
2016,03,31,17,17,19.30
2016,03,31,17,18,19.30
2016,03,31,17,19,19.30